C/2016 N4 ( MASTER )

Japanese version
Home page
Updated on October 22, 2018

---------------------------------------------------------------------

* Profile

Discovery Date July 15, 2016
Magnitude 16.8 mag
Discoverer Mobile Astronomical System of the Telescope-Robots (MASTER)

* Pictures

* Orbital Elements

Epoch 2017 Sept. 4.0 TT = JDT 2458000.5
T 2017 Sept. 16.59728 TT                                MPCW
q   3.1991120            (2000.0)            P               Q
z  +0.0001927      Peri.   55.95530     +0.58263153     -0.80665942
 +/-0.0000004      Node   354.03139     -0.14120886     +0.01973065
e   0.9993836      Incl.   72.55728     +0.80037526     +0.59068712
From 1718 observations 2015 Sept. 11-2018 Aug. 17, mean residual 0".5.

* Finding Charts

* Magnitudes Graph

        m1 = 7.0 + 5 log d + 10.0 log r(t + 100)

---------------------------------------------------------------------

The orbital elements are published on M.P.E.C. 2018-S50.
The charts are made with StellaNavigator Ver.10 (AstroArts).
The magnitudes graphs are made with Comet for Windows.

---------------------------------------------------------------------

Copyright(C) Seiichi Yoshida (comet@aerith.net). All rights reserved.